[[{"header":{"parameterUnit":"m.s-1","parameterCategory":1,"la1":30.2991,"la2":30.254,"lo1":-89.0895,"lo2":-89.0444,"dy":0.0017,"dx":0.0017,"nx":28,"ny":28,"refTime":"2025-01-16T09:00:00:Z","depth":0,"parameterNumber":2,"parameterNumberName":"U-component_of_WINDS"},"data":[0,0,0,0,0,0,0,0,0,0,0,0,0,0,0,0,0,0,0,0,0,0,0,0,0,0,0,0,0,0,0,0,0,0,0,0,0,0,0,0,0,0,0,0,0,0,0,0,0,0,0,0,0,0,0,0,0,0,-0.3572,-0.3572,0,-0.3617,-0.3617,-0.3618,-0.3588,-0.3586,-0.3585,-0.3584,-0.363,-0.3633,-0.3635,0,0,0,0,0,0,0,0,0,0,0,0,0,-0.3461,-0.3464,-0.3572,-0.3572,-0.3573,-0.3616,-0.3617,-0.3618,-0.3588,-0.3586,-0.3584,-0.3583,-0.363,-0.3633,-0.3636,0,0,0,0,0,0,0,0,0,0,0,0,0,-0.3508,-0.3464,-0.3572,-0.3563,-0.3563,-0.3616,-0.3617,-0.3618,-0.3588,-0.3586,-0.3584,-0.3582,-0.3629,-0.3632,-0.3636,-0.3701,0,0,-0.3648,-0.3649,0,0,0,0,0,0,0,0,-0.3506,-0.3512,-0.3564,-0.3564,-0.3564,-0.3594,-0.3595,-0.3646,-0.3589,-0.3579,-0.3583,-0.3581,-0.362,-0.3625,-0.3637,-0.3703,-0.3705,-0.3648,-0.365,-0.3652,-0.3653,0,0,0,0,0,0,0,-0.3502,-0.351,-0.359,-0.3565,-0.3565,-0.3557,-0.3562,-0.3605,-0.361,-0.3579,-0.3577,-0.3583,-0.362,-0.3634,-0.3638,-0.3706,-0.3648,-0.3651,-0.3654,-0.3655,-0.3827,-0.3829,0,0,0,0,0,0,-0.35,-0.3508,-0.3588,-0.3591,-0.3529,-0.3561,-0.3566,-0.3587,-0.361,-0.3611,-0.3585,-0.3581,-0.3628,-0.3634,-0.364,-0.3718,-0.3652,-0.3655,-0.3658,-0.3824,-0.3827,-0.383,0,0,0,0,0,0,-0.3497,-0.3507,-0.3586,-0.3549,-0.3558,-0.3565,-0.3589,-0.3589,-0.3603,-0.3614,-0.3615,-0.3598,-0.3627,-0.3635,-0.3686,-0.3719,-0.3657,-0.3661,-0.3822,-0.3825,-0.3828,-0.3874,0,0,0,0,0,0,-0.3494,-0.3507,-0.3531,-0.3549,-0.356,-0.3632,-0.3591,-0.3591,-0.3609,-0.3605,-0.3627,-0.3628,-0.3626,-0.368,-0.369,-0.3723,-0.3664,-0.3819,-0.3823,-0.3827,-0.3869,-0.3878,-0.3886,0,0,0,0,0,-0.3491,-0.3542,-0.3532,-0.3542,-0.3591,-0.3633,-0.364,-0.3636,-0.3612,-0.3637,-0.3644,-0.3628,-0.3713,-0.3686,-0.3696,-0.3731,-0.3817,-0.3822,-0.3827,-0.3866,-0.3877,-0.3886,0,0,0,0,0,0,-0.3528,-0.3544,-0.3534,-0.3593,-0.3612,-0.3628,-0.366,-0.3647,-0.3674,-0.3669,-0.3663,-0.3668,-0.3722,-0.3731,-0.37,-0.3795,-0.3761,-0.3769,-0.3787,-0.3798,-0.3806,-0.3803,-0.3667,0,0,0,0,0,-0.3543,-0.3576,-0.3588,-0.3639,-0.3649,-0.3653,-0.3671,-0.3666,-0.3686,-0.3694,-0.3705,-0.3725,-0.3756,-0.3777,-0.3807,-0.387,-0.3875,-0.3899,-0.3907,-0.3914,-0.3921,-0.3956,-0.3967,-0.3846,-0.3846,-0.3846,0,0,-0.3575,-0.3588,-0.3609,-0.3647,-0.3661,-0.3696,-0.366,-0.3698,-0.3724,-0.37,-0.3749,-0.3758,-0.378,-0.3837,-0.3863,-0.3847,-0.3955,-0.3921,-0.3926,-0.393,-0.3963,-0.3974,-0.3984,-0.385,-0.3849,-0.3849,0,0,-0.365,-0.3663,-0.3707,-0.3722,-0.3744,-0.3746,-0.3756,-0.3774,-0.3779,-0.3828,-0.3811,-0.3842,-0.3896,-0.3912,-0.3928,-0.4009,-0.3995,-0.4019,-0.4063,-0.4097,-0.4106,-0.4115,-0.4145,-0.4156,-0.4025,-0.4025,-0.4025,0,-0.3687,-0.3738,-0.3732,-0.3771,-0.3789,-0.3768,-0.3813,-0.3828,-0.3858,-0.3871,-0.3852,-0.3919,-0.3933,-0.3994,-0.4014,-0.4027,-0.4039,-0.4017,-0.4105,-0.4114,-0.4122,-0.415,-0.4162,-0.4028,-0.4028,-0.4027,-0.4027,0,-0.3783,-0.3819,-0.3852,-0.3881,-0.3902,-0.3945,-0.3945,-0.3967,-0.396,-0.3964,-0.4014,-0.4029,-0.4062,-0.4075,-0.4069,-0.4136,-0.4126,-0.4106,-0.4072,-0.4136,-0.4163,-0.4174,-0.4032,-0.4031,-0.403,-0.403,0,0,-0.3885,-0.391,-0.3922,-0.3936,-0.3958,-0.3986,-0.4026,-0.4058,-0.4077,-0.4099,-0.4134,-0.4179,-0.4161,-0.4179,-0.4174,-0.4204,-0.4268,-0.418,-0.4181,-0.4198,-0.4345,-0.4361,-0.4374,-0.4259,-0.4261,-0.4262,-0.4343,0,-0.3963,-0.4035,-0.4029,-0.4097,-0.413,-0.4111,-0.4146,-0.4164,-0.4169,-0.4198,-0.4202,-0.4236,-0.4209,-0.4219,-0.4248,-0.4255,-0.4298,-0.4248,-0.4292,-0.4294,-0.4289,-0.4387,-0.4404,-0.448,-0.4354,-0.4356,-0.4357,0,-0.4064,-0.4089,-0.416,-0.4177,-0.4191,-0.4223,-0.4251,-0.4279,-0.4298,-0.43,-0.4319,-0.4309,-0.4351,-0.4315,-0.4373,-0.4339,-0.4356,-0.4362,-0.4365,-0.437,-0.433,-0.4397,-0.4504,-0.4516,-0.4373,-0.4372,-0.4371,0,-0.4133,-0.4184,-0.4233,-0.4245,-0.4266,-0.4289,-0.4299,-0.4316,-0.4336,-0.436,-0.4373,-0.4402,-0.4419,-0.4441,-0.444,-0.4413,-0.4499,-0.4462,-0.4502,-0.4502,-0.4523,-0.4522,-0.4636,-0.4531,-0.4531,-0.4531,-0.453,0,-0.4222,-0.4266,-0.4264,-0.4295,-0.4344,-0.4338,-0.4387,-0.4394,-0.4409,-0.4441,-0.4425,-0.4456,-0.4451,-0.4481,-0.448,-0.4529,-0.4536,-0.4539,-0.4538,-0.4541,-0.4541,-0.4554,-0.4549,-0.4534,-0.4533,-0.4532,-0.4532,0,-0.4308,-0.4308,-0.4361,-0.4376,-0.4381,-0.4417,-0.443,-0.4459,-0.4462,-0.4502,-0.4511,-0.4516,-0.4551,-0.4551,-0.4591,-0.459,-0.465,-0.4643,-0.4644,-0.4643,-0.4683,-0.468,-0.4811,-0.4828,-0.471,-0.4711,-0.4712,0,-0.4366,-0.4399,-0.4418,-0.4438,-0.4449,-0.4482,-0.4501,-0.4496,-0.4517,-0.4541,-0.4568,-0.4601,-0.4627,-0.4684,-0.4691,-0.4721,-0.4716,-0.4759,-0.472,-0.4722,-0.4718,-0.4717,-0.4721,-0.4768,-0.4769,-0.477,-0.4771,0,-0.4468,-0.4466,-0.4495,-0.4524,-0.4547,-0.457,-0.459,-0.4607,-0.4604,-0.4628,-0.4664,-0.4684,-0.4725,-0.4758,-0.4788,-0.4798,-0.4785,-0.4783,-0.4794,-0.4798,-0.4798,-0.48,-0.4666,-0.478,-0.4779,-0.4779,-0.4778,-0.4778,-0.4543,-0.4572,-0.459,-0.4622,-0.4637,-0.4657,-0.4685,-0.4691,-0.472,-0.4753,-0.4747,-0.4787,-0.4805,-0.4843,-0.4856,-0.4887,-0.4872,-0.4888,-0.4892,-0.4897,-0.4902,-0.4792,-0.4892,-0.4892,-0.4892,-0.4892,-0.4891,0,-0.4646,-0.4656,-0.4686,-0.4715,-0.4741,-0.4724,-0.4746,-0.4769,-0.4804,-0.4822,-0.4848,-0.4889,-0.4921,-0.4931,-0.4962,-0.4985,-0.498,-0.4994,-0.4993,-0.4996,-0.4913,-0.4901,-0.4998,-0.4998,-0.4998,-0.4998,-0.4997,-0.4997,-0.4703,-0.4752,-0.4752,-0.4808,-0.4818,-0.4857,-0.4871,-0.4889,-0.4904,-0.495,-0.4977,-0.4982,-0.4997,-0.5029,-0.5058,-0.506,-0.5073,-0.509,-0.5089,-0.5012,-0.5001,-0.4991,-0.498,-0.5092,-0.5092,-0.517,-0.5171,-0.5171]},{"header":{"parameterUnit":"m.s-1","parameterCategory":1,"la1":30.2991,"la2":30.254,"lo1":-89.0895,"lo2":-89.0444,"dy":0.0017,"dx":0.0017,"nx":28,"ny":28,"refTime":"2025-01-16T09:00:00:Z","depth":0,"parameterNumber":3,"parameterNumberName":"V-component_of_WINDS"},"data":[0,0,0,0,0,0,0,0,0,0,0,0,0,0,0,0,0,0,0,0,0,0,0,0,0,0,0,0,0,0,0,0,0,0,0,0,0,0,0,0,0,0,0,0,0,0,0,0,0,0,0,0,0,0,0,0,0,0,-2.1683,-2.1683,0,-2.1707,-2.1707,-2.1708,-2.1696,-2.1695,-2.1695,-2.1694,-2.1716,-2.1717,-2.1718,0,0,0,0,0,0,0,0,0,0,0,0,0,-2.1624,-2.1625,-2.1683,-2.1683,-2.1684,-2.1707,-2.1707,-2.1708,-2.1696,-2.1695,-2.1694,-2.1694,-2.1716,-2.1717,-2.1719,0,0,0,0,0,0,0,0,0,0,0,0,0,-2.1649,-2.1626,-2.1683,-2.1681,-2.1681,-2.1707,-2.1707,-2.1708,-2.1696,-2.1695,-2.1694,-2.1693,-2.1715,-2.1717,-2.1719,-2.1748,0,0,-2.1724,-2.1725,0,0,0,0,0,0,0,0,-2.1648,-2.1651,-2.1681,-2.1681,-2.1681,-2.1698,-2.1695,-2.1721,-2.1696,-2.169,-2.1694,-2.1693,-2.1711,-2.1713,-2.1719,-2.1749,-2.175,-2.1724,-2.1725,-2.1726,-2.1727,0,0,0,0,0,0,0,-2.1646,-2.165,-2.1692,-2.1681,-2.1681,-2.1677,-2.168,-2.17,-2.1705,-2.1691,-2.169,-2.1693,-2.171,-2.1717,-2.172,-2.175,-2.1724,-2.1726,-2.1727,-2.1728,-2.1805,-2.1806,0,0,0,0,0,0,-2.1645,-2.1649,-2.1692,-2.1693,-2.1662,-2.1679,-2.1682,-2.1693,-2.1705,-2.1706,-2.1694,-2.1692,-2.1715,-2.1718,-2.172,-2.1755,-2.1726,-2.1728,-2.1729,-2.1804,-2.1805,-2.1806,0,0,0,0,0,0,-2.1643,-2.1649,-2.1691,-2.1671,-2.1676,-2.1681,-2.1694,-2.1694,-2.1701,-2.1707,-2.1708,-2.17,-2.1714,-2.1718,-2.1741,-2.1755,-2.1729,-2.173,-2.1802,-2.1804,-2.1805,-2.1824,0,0,0,0,0,0,-2.1642,-2.1648,-2.166,-2.1671,-2.1677,-2.1712,-2.1695,-2.1695,-2.1704,-2.1703,-2.1713,-2.1714,-2.1714,-2.1739,-2.1743,-2.1757,-2.1731,-2.1801,-2.1803,-2.1805,-2.1822,-2.1826,-2.1829,0,0,0,0,0,-2.164,-2.1664,-2.1661,-2.1666,-2.1692,-2.1713,-2.1716,-2.1716,-2.1706,-2.1717,-2.1721,-2.1714,-2.1753,-2.1741,-2.1746,-2.1761,-2.18,-2.1803,-2.1805,-2.1821,-2.1825,-2.1829,0,0,0,0,0,0,-2.1654,-2.1666,-2.1662,-2.1691,-2.1701,-2.1711,-2.1725,-2.1721,-2.1734,-2.1732,-2.173,-2.1732,-2.1756,-2.1761,-2.1747,-2.1789,-2.1775,-2.1778,-2.1785,-2.179,-2.1793,-2.1791,-2.1733,0,0,0,0,0,-2.166,-2.1677,-2.1686,-2.1711,-2.1716,-2.172,-2.1729,-2.1728,-2.1738,-2.1742,-2.1748,-2.1757,-2.1772,-2.1781,-2.1795,-2.1823,-2.1824,-2.1836,-2.1839,-2.1842,-2.1845,-2.1859,-2.1863,-2.1813,-2.1813,-2.1813,0,0,-2.1674,-2.1682,-2.1693,-2.1714,-2.1722,-2.1738,-2.1724,-2.1742,-2.1754,-2.1745,-2.1767,-2.1772,-2.1782,-2.1808,-2.1819,-2.1812,-2.1859,-2.1845,-2.1847,-2.1848,-2.1862,-2.1866,-2.1871,-2.1815,-2.1814,-2.1814,0,0,-2.1707,-2.1716,-2.1737,-2.1745,-2.1757,-2.1759,-2.1764,-2.1775,-2.1778,-2.18,-2.1794,-2.1807,-2.1833,-2.184,-2.1847,-2.1882,-2.1876,-2.1887,-2.1905,-2.1919,-2.1923,-2.1926,-2.1938,-2.1942,-2.189,-2.189,-2.189,0,-2.1722,-2.1748,-2.1748,-2.1767,-2.1775,-2.1769,-2.1789,-2.1797,-2.1813,-2.1818,-2.1811,-2.1842,-2.1848,-2.1875,-2.1884,-2.189,-2.1895,-2.1885,-2.1923,-2.1926,-2.1929,-2.194,-2.1945,-2.1891,-2.1891,-2.1891,-2.189,0,-2.1765,-2.1783,-2.1798,-2.1814,-2.1825,-2.1844,-2.1847,-2.1857,-2.1855,-2.1858,-2.188,-2.1888,-2.1903,-2.1909,-2.1907,-2.1936,-2.1931,-2.1923,-2.1908,-2.1935,-2.1946,-2.195,-2.1893,-2.1892,-2.1892,-2.1891,0,0,-2.1807,-2.1823,-2.1829,-2.1836,-2.1849,-2.1862,-2.188,-2.1896,-2.1904,-2.1915,-2.193,-2.1951,-2.1944,-2.1952,-2.1951,-2.1963,-2.1989,-2.1953,-2.1954,-2.1959,-2.202,-2.2025,-2.203,-2.1986,-2.1986,-2.1987,-2.2019,0,-2.1841,-2.1875,-2.1875,-2.1906,-2.1921,-2.1915,-2.1931,-2.194,-2.1943,-2.1956,-2.1959,-2.1974,-2.1964,-2.1968,-2.198,-2.1984,-2.2001,-2.1982,-2.1998,-2.1999,-2.1995,-2.2036,-2.2042,-2.2071,-2.2023,-2.2024,-2.2024,0,-2.1884,-2.1897,-2.1929,-2.1939,-2.1946,-2.1961,-2.1974,-2.1987,-2.1997,-2.1998,-2.2007,-2.2003,-2.2021,-2.2007,-2.2031,-2.2018,-2.2025,-2.2027,-2.2028,-2.2029,-2.2013,-2.2037,-2.2081,-2.2085,-2.2031,-2.203,-2.203,0,-2.1911,-2.1936,-2.1959,-2.1965,-2.1977,-2.1987,-2.1993,-2.2002,-2.2011,-2.2022,-2.2027,-2.2041,-2.2048,-2.2058,-2.2058,-2.2047,-2.2082,-2.2067,-2.2082,-2.2082,-2.2089,-2.2089,-2.2134,-2.2095,-2.2095,-2.2095,-2.2095,0,-2.1948,-2.1967,-2.1971,-2.1984,-2.2006,-2.2006,-2.2027,-2.2031,-2.2039,-2.2053,-2.2048,-2.2061,-2.2061,-2.2073,-2.2073,-2.2093,-2.2096,-2.2097,-2.2097,-2.2097,-2.2097,-2.2101,-2.2099,-2.2096,-2.2096,-2.2096,-2.2096,0,-2.1981,-2.1984,-2.2008,-2.2018,-2.2021,-2.2036,-2.2044,-2.2056,-2.2059,-2.2076,-2.208,-2.2084,-2.2099,-2.21,-2.2117,-2.2117,-2.214,-2.2138,-2.2137,-2.2136,-2.2151,-2.2149,-2.22,-2.2206,-2.2164,-2.2164,-2.2165,0,-2.2004,-2.2019,-2.203,-2.2039,-2.2046,-2.206,-2.2069,-2.207,-2.2079,-2.2091,-2.2102,-2.2116,-2.2127,-2.2151,-2.2155,-2.2167,-2.2165,-2.2182,-2.2166,-2.2166,-2.2164,-2.2163,-2.2164,-2.2184,-2.2185,-2.2185,-2.2185,0,-2.2044,-2.2044,-2.2058,-2.2072,-2.2083,-2.2094,-2.2104,-2.2111,-2.2113,-2.2123,-2.2138,-2.2147,-2.2165,-2.2178,-2.2191,-2.2195,-2.219,-2.219,-2.2194,-2.2194,-2.2193,-2.2193,-2.2144,-2.2189,-2.2188,-2.2188,-2.2188,-2.2188,-2.2072,-2.2085,-2.2095,-2.2109,-2.2117,-2.2127,-2.2139,-2.2143,-2.2156,-2.217,-2.2169,-2.2186,-2.2194,-2.221,-2.2216,-2.2228,-2.2222,-2.2228,-2.223,-2.2231,-2.2232,-2.2192,-2.2231,-2.2231,-2.223,-2.223,-2.223,0,-2.2111,-2.2117,-2.2131,-2.2145,-2.2157,-2.2152,-2.2162,-2.2172,-2.2187,-2.2196,-2.2207,-2.2224,-2.2237,-2.2242,-2.2255,-2.2263,-2.2261,-2.2267,-2.2266,-2.2267,-2.2237,-2.2232,-2.2268,-2.2268,-2.2268,-2.2268,-2.2268,-2.2268,-2.2132,-2.2153,-2.2155,-2.218,-2.2185,-2.2202,-2.2208,-2.2217,-2.2224,-2.2243,-2.2254,-2.2257,-2.2264,-2.2277,-2.2289,-2.229,-2.2294,-2.2301,-2.23,-2.2273,-2.2269,-2.2265,-2.226,-2.2302,-2.2302,-2.2329,-2.2329,-2.2329]}]]